Miscellaneous Local Product
Issued by NWS Hastings, NE

Home | Current Version | Previous Version | Graphics & Text | Print | Product List | Glossary On
Versions: 1 2 3 4 5 6 7 8 9 10 11 12 13 14 15 16 17 18 19 20 21 22 23 24 25 26 27 28 29 30 31 32 33 34 35 36 37 38 39 40 41 42 43 44 45 46 47 48 49 50
000
AXUS43 KGID 312011
MISGRI

GID CWA HOURLY WEATHER ROUNDUP
NATIONAL WEATHER SERVICE HASTINGS NE
300 PM CDT THU JUL 31 2014

NOTE: "FAIR" INDICATES FEW OR NO CLOUDS BELOW 12,000 FEET WITH NO
SIGNIFICANT WEATHER AND/OR OBSTRUCTIONS TO VISIBILITY.

...SOUTH CENTRAL NEBRASKA...

CITY           SKY/WX    TMP DP  RH WIND       PRES   REMARKS
GRAND ISLAND   MOSUNNY   91  57  31 SW16G23   30.03F
HASTINGS       SUNNY     87  52  29 SW8       30.05F
KEARNEY        MOSUNNY   90  57  33 S20       30.05F
ORD            MOSUNNY   89  54  30 NW9       30.02F
YORK           SUNNY     84  63  48 S12G17    30.05F
AURORA         SUNNY     86  62  43 SW10      30.04F
LEXINGTON      SUNNY     89  55  31 NW8G16    30.07S
HOLDREGE       SUNNY     87  53  30 SW10      30.07F
HEBRON         SUNNY     85  52  31 SW7       30.07F

...NEBRASKA PANHANDLE...

CITY           SKY/WX    TMP DP  RH WIND       PRES   REMARKS
CHADRON        SUNNY     86  47  25 VRB5      30.15F
ALLIANCE       SUNNY     85  40  20 NW6       30.18F
SCOTTSBLUFF    SUNNY     85  46  25 VRB6      30.19F
SIDNEY         MOSUNNY   84  43  23 NW8       30.22S

...WESTERN AND NORTH CENTRAL NEBRASKA...

CITY           SKY/WX    TMP DP  RH WIND       PRES   REMARKS
VALENTINE      SUNNY     86  51  29 MISG      30.10F
AINSWORTH      SUNNY     84  50  31 NW10G18   30.10S
ONEILL         MOSUNNY   81  63  53 NW6       30.05S
BROKEN BOW     SUNNY     87  53  31 NW17      30.06F
IMPERIAL       SUNNY     84  49  29 NW8       30.16F
NORTH PLATTE   MOSUNNY   87  51  28 NW8G18    30.09F
MCCOOK         SUNNY     87  50  27 W13G18    30.11F

...EASTERN NEBRASKA...

CITY           SKY/WX    TMP DP  RH WIND       PRES   REMARKS
NORFOLK        SUNNY     83  60  45 SE10G20   30.03F
SO SIOUX CITY  LGT RAIN  72  64  76 NE8       30.08S
TEKAMAH        PTSUNNY   81  56  42 E3        30.05F
ALBION         MOSUNNY   87  55  34 W6        30.01F
OMAHA EPPLEY   CLOUDY    84  54  35 S7        30.05F
OFFUTT AFB     MOSUNNY   84  57  40 E8        30.05F
MILLARD        SUNNY     83  56  40 SW5G22    30.05F
LINCOLN        SUNNY     87  56  34 S10       30.05F
NEBRASKA CITY  SUNNY     82  51  34 S8        30.07F
BEATRICE       SUNNY     84  56  39 W7        30.07F
FALLS CITY     SUNNY     85  55  35 VRB6      30.07F

...NORTHERN KANSAS...

CITY           SKY/WX    TMP DP  RH WIND       PRES   REMARKS
GOODLAND       MOSUNNY   82  52  35 NW14      30.20F
HILL CITY      PTSUNNY   86  50  28 SW8       30.11F
NORTON         PTCLDY    88  43  20 W10       30.09F
PHILLIPSBURG   MOSUNNY   88  52  29 W8        30.08F
SMITH CENTER   SUNNY     84  54  34 CALM      30.08F
HAYS           MOSUNNY   82  55  39 NE5       30.11F
RUSSELL        MOSUNNY   84  57  39 VRB5      30.09F
CONCORDIA      SUNNY     85  56  37 VRB5      30.08F
SALINA         MOSUNNY   86  52  30 VRB5G17   30.09F
TOPEKA         MOSUNNY   85  53  33 VRB3      30.08F



USA.gov is the U.S. government's official web portal to all federal, state and local government web resources and services.